When you browse on this site, cookies collect data to enhance your experience and personalize the content and advertising you see.
Visit our Privacy Policy to learn more. By continuing to use the site, you agree to this use of cookies and data.
  • In Latvia
  • List of Countries
  • For 7 days
  • Water Temperature
  • Weather Map
  • Weather Widgets
  • user-avatar
    Login

    Hourly Weather Ischgl

    Today, 3 June, Wednesday

    Time Temperature Precipitation Wind Pressure Humidity
    00:00 +2°C° 0 mm 1 mps 570 mmHg 88%
    01:00 +2°C° 0 mm 1 mps 570 mmHg 88%
    02:00 +1°C° 0 mm 1 mps 570 mmHg 86%
    03:00 +1°C° 0 mm 1 mps 569 mmHg 85%
    04:00 +1°C° 0 mm 1 mps 569 mmHg 83%
    05:00 +2°C° 0 mm 0 mps 570 mmHg 77%
    06:00 +4°C° 0 mm 0 mps 571 mmHg 70%
    07:00 +6°C° 0 mm 0 mps 572 mmHg 63%
    08:00 +7°C° 0 mm 0 mps 572 mmHg 56%
    09:00 +10°C° 0 mm 1 mps 572 mmHg 49%
    10:00 +11°C° 0 mm 1 mps 573 mmHg 41%
    11:00 +12°C° 0 mm 1 mps 573 mmHg 39%
    12:00 +13°C° 0 mm 1 mps 573 mmHg 37%
    13:00 +13°C° 0 mm 1 mps 573 mmHg 34%
    14:00 +13°C° 0.1 mm 1 mps 572 mmHg 37%
    15:00 +13°C° 0.1 mm 2 mps 572 mmHg 40%
    16:00 +13°C° 0.1 mm 2 mps 571 mmHg 42%
    17:00 +10°C° 0.5 mm 2 mps 570 mmHg 54%
    18:00 +10°C° 0.5 mm 1 mps 569 mmHg 65%
    19:00 +8°C° 0.5 mm 1 mps 568 mmHg 77%
    20:00 +7°C° 0.2 mm 1 mps 568 mmHg 80%
    21:00 +6°C° 0.2 mm 1 mps 568 mmHg 83%
    22:00 +5°C° 0.2 mm 1 mps 567 mmHg 86%
    23:00 +5°C° 0 mm 1 mps 567 mmHg 87%

    Tomorrow, 4 June, Thursday

    Time Temperature Precipitation Wind Pressure Humidity
    00:00 +3°C° 0 mm 2 mps 566 mmHg 88%
    01:00 +3°C° 0 mm 2 mps 566 mmHg 89%
    02:00 +3°C° 0 mm 2 mps 566 mmHg 90%
    03:00 +3°C° 0 mm 2 mps 566 mmHg 92%
    04:00 +3°C° 0 mm 2 mps 565 mmHg 93%
    05:00 +3°C° 0.2 mm 2 mps 565 mmHg 92%
    06:00 +5°C° 0.2 mm 1 mps 565 mmHg 91%
    07:00 +5°C° 0.2 mm 1 mps 565 mmHg 90%
    08:00 +5°C° 0.5 mm 1 mps 565 mmHg 89%
    09:00 +6°C° 0.5 mm 1 mps 565 mmHg 88%
    10:00 +5°C° 0.5 mm 2 mps 565 mmHg 87%
    11:00 +5°C° 0.2 mm 2 mps 565 mmHg 86%
    12:00 +6°C° 0.2 mm 2 mps 565 mmHg 85%
    13:00 +6°C° 0.2 mm 2 mps 565 mmHg 84%
    14:00 +5°C° 0.8 mm 2 mps 565 mmHg 87%
    15:00 +5°C° 0.8 mm 2 mps 564 mmHg 90%
    16:00 +4°C° 0.8 mm 2 mps 564 mmHg 94%
    17:00 +4°C° 1 mm 2 mps 564 mmHg 95%
    18:00 +3°C° 1 mm 2 mps 563 mmHg 96%
    19:00 +3°C° 1 mm 2 mps 563 mmHg 97%
    20:00 +2°C° 1.6 mm 2 mps 563 mmHg 97%
    21:00 +3°C° 1.6 mm 1 mps 563 mmHg 97%
    22:00 +2°C° 1.6 mm 1 mps 562 mmHg 98%
    23:00 +2°C° 1.8 mm 1 mps 562 mmHg 98%

    Day after tomorrow, 5 June, Friday

    Time Temperature Precipitation Wind Pressure Humidity
    00:00 +2°C° 1.8 mm 1 mps 562 mmHg 98%
    01:00 +2°C° 1.8 mm 1 mps 562 mmHg 98%
    02:00 +2°C° 0.8 mm 1 mps 562 mmHg 98%
    03:00 +2°C° 0.8 mm 1 mps 562 mmHg 98%
    04:00 +2°C° 0.8 mm 1 mps 562 mmHg 97%
    05:00 +2°C° 0.3 mm 1 mps 562 mmHg 97%
    06:00 +2°C° 0.3 mm 1 mps 562 mmHg 97%
    07:00 +1°C° 0.3 mm 2 mps 562 mmHg 97%
    08:00 +1°C° 0.6 mm 2 mps 563 mmHg 96%
    09:00 +1°C° 0.6 mm 2 mps 563 mmHg 95%
    10:00 +2°C° 0.6 mm 2 mps 564 mmHg 95%
    11:00 +2°C° 0.2 mm 2 mps 564 mmHg 93%
    12:00 +2°C° 0.2 mm 2 mps 564 mmHg 91%
    13:00 +3°C° 0.2 mm 2 mps 565 mmHg 88%
    14:00 +3°C° 0.1 mm 2 mps 565 mmHg 84%
    15:00 +4°C° 0.1 mm 2 mps 565 mmHg 80%
    16:00 +6°C° 0.1 mm 1 mps 566 mmHg 75%
    17:00 +5°C° 0.1 mm 1 mps 566 mmHg 78%
    18:00 +5°C° 0.1 mm 1 mps 566 mmHg 80%
    19:00 +4°C° 0.1 mm 1 mps 566 mmHg 82%
    20:00 +3°C° 0 mm 1 mps 566 mmHg 86%
    21:00 +2°C° 0 mm 1 mps 566 mmHg 90%
    22:00 0°C° 0 mm 1 mps 565 mmHg 94%
    23:00 0°C° 0 mm 1 mps 566 mmHg 93%

    6 June, Saturday

    Time Temperature Precipitation Wind Pressure Humidity
    00:00 0°C° 0 mm 1 mps 566 mmHg 92%
    01:00 -2°C° 0 mm 2 mps 566 mmHg 92%
    02:00 -2°C° 0 mm 2 mps 566 mmHg 91%
    03:00 -2°C° 0 mm 2 mps 566 mmHg 89%
    04:00 -2°C° 0 mm 2 mps 566 mmHg 88%
    05:00 +1°C° 0 mm 2 mps 567 mmHg 84%
    06:00 +2°C° 0 mm 2 mps 568 mmHg 80%
    07:00 +4°C° 0 mm 2 mps 569 mmHg 76%
    08:00 +5°C° 0 mm 2 mps 569 mmHg 74%
    09:00 +6°C° 0 mm 2 mps 570 mmHg 71%
    10:00 +8°C° 0 mm 2 mps 571 mmHg 69%
    11:00 +8°C° 0.3 mm 2 mps 571 mmHg 69%
    12:00 +9°C° 0.3 mm 2 mps 571 mmHg 69%
    13:00 +9°C° 0.3 mm 3 mps 571 mmHg 69%
    14:00 +8°C° 0.8 mm 2 mps 571 mmHg 74%
    15:00 +8°C° 0.8 mm 2 mps 571 mmHg 79%
    16:00 +7°C° 0.8 mm 2 mps 570 mmHg 83%
    17:00 +8°C° 0.6 mm 1 mps 570 mmHg 86%
    18:00 +7°C° 0.6 mm 1 mps 570 mmHg 88%
    19:00 +7°C° 0.6 mm 1 mps 570 mmHg 91%
    20:00 +6°C° 0.5 mm 1 mps 570 mmHg 93%
    21:00 +5°C° 0.5 mm 1 mps 570 mmHg 94%
    22:00 +4°C° 0.5 mm 1 mps 570 mmHg 96%
    23:00 +4°C° 0.1 mm 1 mps 569 mmHg 96%

    7 June, Sunday

    Time Temperature Precipitation Wind Pressure Humidity
    00:00 +4°C° 0.1 mm 1 mps 569 mmHg 96%
    01:00 +3°C° 0.1 mm 1 mps 569 mmHg 96%
    02:00 +3°C° 0.1 mm 1 mps 568 mmHg 96%
    03:00 +3°C° 0.1 mm 1 mps 568 mmHg 96%
    04:00 +3°C° 0.1 mm 1 mps 568 mmHg 95%
    05:00 +4°C° 0.3 mm 1 mps 569 mmHg 94%
    06:00 +4°C° 0.3 mm 1 mps 569 mmHg 92%
    07:00 +5°C° 0.3 mm 1 mps 570 mmHg 90%
    08:00 +5°C° 0.5 mm 1 mps 570 mmHg 91%
    09:00 +5°C° 0.5 mm 1 mps 570 mmHg 92%
    10:00 +5°C° 0.5 mm 1 mps 570 mmHg 93%
    11:00 +6°C° 0.5 mm 1 mps 570 mmHg 92%
    12:00 +6°C° 0.5 mm 1 mps 570 mmHg 91%
    13:00 +6°C° 0.5 mm 2 mps 571 mmHg 89%
    14:00 +6°C° 1 mm 2 mps 571 mmHg 90%
    15:00 +6°C° 1 mm 1 mps 571 mmHg 91%
    16:00 +6°C° 1 mm 1 mps 571 mmHg 92%
    17:00 +5°C° 1.3 mm 1 mps 571 mmHg 94%
    18:00 +4°C° 1.3 mm 1 mps 570 mmHg 96%
    19:00 +3°C° 1.3 mm 2 mps 570 mmHg 97%
    20:00 +3°C° 1.5 mm 1 mps 570 mmHg 98%
    21:00 +3°C° 1.5 mm 1 mps 570 mmHg 98%
    22:00 +2°C° 1.5 mm 1 mps 570 mmHg 98%
    23:00 +2°C° 0.3 mm 1 mps 570 mmHg 98%

    8 June, Monday

    Time Temperature Precipitation Wind Pressure Humidity
    00:00 +2°C° 0.3 mm 1 mps 570 mmHg 98%
    01:00 +2°C° 0.3 mm 1 mps 570 mmHg 98%
    02:00 +2°C° 0.3 mm 1 mps 570 mmHg 98%
    03:00 +2°C° 0.3 mm 1 mps 570 mmHg 98%
    04:00 +2°C° 0.3 mm 1 mps 570 mmHg 98%
    05:00 +2°C° 0.8 mm 1 mps 570 mmHg 98%
    06:00 +2°C° 0.8 mm 1 mps 570 mmHg 98%
    07:00 +2°C° 0.8 mm 1 mps 570 mmHg 98%
    08:00 +2°C° 0.8 mm 1 mps 570 mmHg 97%
    09:00 +2°C° 0.8 mm 1 mps 570 mmHg 97%
    10:00 +1°C° 0.8 mm 2 mps 570 mmHg 96%
    11:00 +1°C° 1 mm 2 mps 570 mmHg 97%
    12:00 +1°C° 1 mm 2 mps 570 mmHg 97%
    13:00 -1°C° 1 mm 2 mps 570 mmHg 98%
    14:00 -1°C° 1.2 mm 2 mps 570 mmHg 97%
    15:00 -1°C° 1.2 mm 2 mps 570 mmHg 97%
    16:00 -1°C° 1.2 mm 2 mps 570 mmHg 97%
    17:00 -1°C° 0.4 mm 2 mps 570 mmHg 97%
    18:00 -1°C° 0.4 mm 2 mps 570 mmHg 96%
    19:00 +1°C° 0.4 mm 1 mps 570 mmHg 96%
    20:00 0°C° 1.1 mm 1 mps 570 mmHg 96%
    21:00 0°C° 1.1 mm 1 mps 571 mmHg 97%
    22:00 0°C° 1.1 mm 1 mps 571 mmHg 97%
    23:00 0°C° 0.9 mm 1 mps 571 mmHg 97%
    Show more